�P�ʁF[MW],,,,,,,,,,,,,,,,,,,,,,
�ݔ�No.,99,2,4,6,7,9,12,21,31,32,34,35,41,42,43,45,49,51,52,54,61,63
�d��[kV],,22,22,22,22,66,66,66,66,66,66,66,66,,22,22,66,66,66,66,66,22
�ݔ���,�����A�ϓd���@�A���p�ψ���,���ʐ�,���ʐ�,���ʐ�,�����ʗ��ʐ�,�k����,�k����,�����ʐ�,���y��,���y��,��ʐ�,��ʓ���,������,�����ϓd���@�A���p�ψ���,�Y����,�Y����,��C��,�Ζk��,�Ζk��,�Ζk��,�㏍����,������
���d�[,66kV,�����A�ϓd��,�u�˕ϓd��,�����ʕϓd��,�����ʕϓd��,�����A�ϓd��,�k�����ϓd��,�����A�ϓd��,�����A�ϓd��,���c���x������,���y�ϓd��,���y�ϓd��,��ʕϓd��,66kV,�����ϓd��,��ؕϓd��,���y�ϓd��,���y�ϓd��,���ː��J��,�ې��z�ϓd��,��ʕϓd��,�����ϓd��
��d�[,22kV,�u�˕ϓd��,�����ʕϓd��,���ʕϓd��,���ʕϓd��,�P�q�{�x������,�k���ϓd��,�����x������,���c���x������,���y�ϓd��,��ʕϓd��,�w�c�x������,�����ϓd��,22kV,��ؕϓd��,�Y���ϓd��,���C�ԕϓd��,���ː��J��,�ې��z�ϓd��,����ϓd��,�㏍���ϓd��,�������J��
2022/4/1 0:00,3,3,2,1,1,26,14,38,-11,-12,-6,-8,8,5,4,4,4,-12,-12,1,1,1
2022/4/1 1:00,3,3,2,1,1,26,14,38,-11,-12,-6,-8,8,5,4,4,4,-12,-12,1,1,1
2022/4/1 2:00,3,3,2,1,1,28,14,39,-8,-9,-6,-6,8,6,5,4,5,-12,-12,1,1,1
2022/4/1 3:00,3,3,2,1,1,29,15,40,-5,-6,-6,-6,9,6,5,4,5,-11,-11,1,1,1
2022/4/1 4:00,3,3,2,1,1,31,17,43,-3,-4,-6,-5,9,6,5,4,5,-10,-10,1,1,1
2022/4/1 5:00,3,3,2,1,1,32,17,44,-3,-4,-5,-4,9,6,5,4,4,-11,-11,1,1,1
2022/4/1 6:00,3,3,2,1,1,31,17,43,-1,-2,-5,-3,9,6,5,4,5,-10,-10,1,1,1
2022/4/1 7:00,3,3,2,1,1,30,15,43,-3,-4,-5,-4,9,6,4,4,5,-10,-10,1,1,1
2022/4/1 8:00,3,3,1,1,1,28,15,38,-12,-12,-6,-8,7,4,3,2,4,-11,-11,1,1,1
2022/4/1 9:00,2,2,1,0,0,22,14,32,-33,-33,-11,-21,6,3,2,2,1,-11,-11,0,1,1
2022/4/1 10:00,0,0,-1,0,0,16,15,26,-49,-49,-13,-29,5,2,2,1,-1,-11,-11,0,1,0
2022/4/1 11:00,0,0,0,0,0,16,15,24,-52,-52,-14,-31,6,4,3,2,-1,-11,-11,0,1,1
2022/4/1 12:00,0,0,0,1,1,16,15,25,-44,-44,-13,-28,6,3,2,2,-1,-10,-10,0,1,1
2022/4/1 13:00,0,0,0,1,1,15,15,28,-39,-39,-12,-25,7,4,3,3,1,-10,-10,0,0,1
2022/4/1 14:00,1,1,0,0,0,18,16,30,-37,-37,-11,-24,9,5,4,3,0,-10,-10,0,1,1
2022/4/1 15:00,2,2,1,0,0,22,15,30,-10,-11,-5,-6,8,5,4,3,2,-10,-10,0,1,1
2022/4/1 16:00,3,3,1,1,1,29,17,36,-2,-2,-4,-3,9,5,4,4,4,-10,-10,0,1,1
2022/4/1 17:00,3,3,2,1,1,31,18,39,0,-1,-4,-1,10,6,4,4,5,-10,-10,0,1,1
2022/4/1 18:00,3,3,2,1,1,34,20,41,2,1,-3,-1,10,6,5,4,5,-10,-10,0,1,1
2022/4/1 19:00,3,3,2,1,1,34,19,42,4,3,-3,0,10,7,5,4,6,-10,-10,1,1,1
2022/4/1 20:00,3,3,2,1,1,32,18,42,1,0,-4,-2,9,6,5,4,5,-9,-9,1,1,1
2022/4/1 21:00,3,3,2,1,1,30,16,40,-1,-2,-4,-3,9,6,5,4,5,-9,-9,0,1,1
2022/4/1 22:00,3,3,2,1,1,29,16,39,-4,-5,-5,-5,8,6,5,4,4,-9,-9,0,1,1
2022/4/1 23:00,3,3,2,1,1,26,14,37,-7,-8,-6,-7,8,6,5,4,4,-9,-9,0,1,1
2022/4/2 0:00,3,3,2,1,1,27,15,38,-6,-6,-6,-6,8,6,5,4,4,-9,-9,1,1,1
2022/4/2 1:00,3,3,2,1,1,27,14,39,-5,-6,-6,-7,8,6,5,4,4,-9,-9,0,1,1
2022/4/2 2:00,3,3,2,1,1,29,16,41,-3,-4,-6,-6,8,6,5,4,4,-9,-9,1,1,1
2022/4/2 3:00,3,3,2,1,1,31,17,44,-1,-2,-5,-5,8,6,5,4,5,-9,-9,1,1,1
2022/4/2 4:00,3,3,2,1,1,33,18,45,0,-1,-5,-4,9,6,5,4,5,-8,-8,1,1,1
2022/4/2 5:00,3,3,2,1,1,33,19,46,1,0,-5,-4,9,6,5,4,5,-8,-8,1,1,1
2022/4/2 6:00,3,3,2,1,1,32,17,44,1,0,-5,-4,9,6,5,4,5,-8,-8,1,1,1
2022/4/2 7:00,3,3,2,1,1,29,15,41,-2,-3,-5,-5,9,6,5,4,5,-8,-8,0,1,1
2022/4/2 8:00,3,3,2,1,1,26,14,35,-12,-12,-8,-10,8,5,4,3,5,-9,-9,0,1,1
2022/4/2 9:00,2,2,1,1,1,22,14,31,-28,-28,-11,-20,5,3,2,1,2,-9,-9,0,1,1
2022/4/2 10:00,1,1,0,0,0,12,13,23,-44,-44,-13,-28,4,2,2,1,0,-10,-10,0,1,0
2022/4/2 11:00,0,0,0,1,1,15,13,23,-51,-51,-15,-33,4,2,2,1,0,-10,-10,0,1,0
2022/4/2 12:00,0,0,0,1,1,16,15,25,-52,-51,-14,-33,5,2,2,1,0,-9,-9,0,1,1
2022/4/2 13:00,0,0,0,1,1,15,14,24,-56,-56,-16,-36,3,1,1,1,-1,-9,-9,0,0,0
2022/4/2 14:00,0,0,0,1,1,16,14,21,-57,-56,-15,-35,3,1,1,1,-1,-9,-9,0,0,0
2022/4/2 15:00,0,0,0,1,1,15,13,21,-55,-55,-15,-34,4,2,1,1,-1,-9,-9,0,1,0
2022/4/2 16:00,0,0,0,0,0,16,13,24,-38,-38,-11,-24,6,3,3,2,1,-9,-9,0,1,1
2022/4/2 17:00,2,2,1,0,0,23,14,29,-19,-19,-8,-14,8,5,4,3,3,-8,-8,0,1,1
2022/4/2 18:00,3,3,2,1,1,28,15,34,-5,-6,-5,-6,9,6,5,4,4,-8,-8,0,1,1
2022/4/2 19:00,3,3,2,1,1,30,17,37,-1,-2,-4,-4,10,6,5,4,5,-8,-8,0,1,1
2022/4/2 20:00,3,3,2,1,1,29,16,38,-3,-3,-5,-5,9,6,5,4,4,-8,-8,0,1,1
2022/4/2 21:00,3,3,2,1,1,27,15,37,-5,-6,-5,-6,8,5,4,4,4,-8,-8,0,1,1
2022/4/2 22:00,3,3,2,1,1,27,14,37,-7,-8,-6,-7,8,5,4,4,4,-8,-8,0,1,1
2022/4/2 23:00,3,3,2,1,1,24,13,35,-9,-10,-6,-8,8,5,4,4,4,-8,-8,0,1,1
2022/4/3 0:00,3,3,2,1,1,25,13,36,-8,-8,-6,-8,8,5,4,4,4,-8,-8,0,1,1
2022/4/3 1:00,3,3,2,1,1,26,13,37,-7,-8,-6,-8,8,5,4,4,5,-8,-8,0,1,1
2022/4/3 2:00,3,3,2,1,1,27,14,39,-5,-5,-6,-7,8,6,5,4,4,-7,-7,0,1,1
2022/4/3 3:00,3,3,2,1,1,29,16,41,-3,-4,-6,-7,8,6,5,4,5,-7,-7,0,1,1
2022/4/3 4:00,3,3,2,1,1,31,17,43,-3,-3,-6,-7,8,5,5,4,5,-7,-7,0,1,1
2022/4/3 5:00,3,3,2,1,1,31,17,43,-2,-3,-6,-6,8,6,5,4,5,-7,-7,0,1,1
2022/4/3 6:00,3,3,2,1,1,28,16,40,-4,-5,-6,-7,8,5,4,3,4,-7,-7,0,1,1
2022/4/3 7:00,2,2,1,0,0,20,12,32,-17,-18,-8,-13,7,5,4,3,2,-7,-7,0,1,1
2022/4/3 8:00,0,0,0,0,0,12,10,23,-39,-39,-12,-25,5,3,3,2,0,-8,-8,0,1,1
2022/4/3 9:00,0,0,0,1,1,7,9,18,-56,-55,-16,-34,3,2,1,1,-2,-9,-9,0,0,0
2022/4/3 10:00,0,0,0,1,1,6,10,16,-64,-63,-17,-40,2,1,1,0,-2,-9,-9,0,0,0
2022/4/3 11:00,0,0,1,1,1,5,10,13,-68,-67,-18,-42,2,1,1,0,-2,-8,-8,0,0,0
2022/4/3 12:00,0,0,1,1,1,4,9,13,-71,-70,-18,-45,2,1,0,0,-2,-8,-8,0,0,0
2022/4/3 13:00,0,0,1,1,1,4,9,12,-71,-70,-19,-45,1,0,1,0,-2,-8,-8,0,0,0
2022/4/3 14:00,0,0,0,1,1,5,9,13,-69,-68,-18,-43,2,1,0,0,-2,-8,-8,0,0,0
2022/4/3 15:00,0,0,0,1,1,8,10,15,-63,-62,-17,-40,2,1,1,0,-1,-8,-8,0,0,0
2022/4/3 16:00,0,0,0,0,0,13,11,19,-52,-52,-15,-33,4,2,2,1,0,-10,-10,0,0,1
2022/4/3 17:00,1,1,1,0,0,19,12,25,-31,-31,-10,-21,6,4,3,2,2,-10,-10,0,1,1
2022/4/3 18:00,2,2,1,1,1,24,14,30,-11,-12,-6,-9,8,5,4,3,4,-10,-10,0,1,1
2022/4/3 19:00,3,3,2,1,1,27,15,35,-6,-6,-5,-6,9,6,5,4,5,-9,-9,0,1,1
2022/4/3 20:00,3,3,2,1,1,27,15,35,-7,-8,-6,-7,8,6,4,4,4,-9,-9,0,1,1
2022/4/3 21:00,3,3,2,1,1,25,14,34,-10,-11,-6,-8,8,5,4,3,4,-10,-10,0,1,1
2022/4/3 22:00,3,3,2,1,1,25,13,34,-13,-14,-7,-9,7,5,4,3,4,-10,-10,0,1,1
2022/4/3 23:00,3,3,1,1,1,22,12,32,-15,-16,-7,-11,7,5,4,3,4,-10,-10,0,1,1
2022/4/4 0:00,3,3,2,1,1,22,12,33,-14,-15,-7,-10,7,5,4,3,4,-10,-10,0,1,1
2022/4/4 1:00,3,3,2,1,1,23,12,34,-13,-14,-7,-10,7,5,4,3,4,-10,-10,0,1,1
2022/4/4 2:00,3,3,2,1,1,25,13,36,-10,-11,-7,-8,8,5,4,4,4,-10,-10,0,1,1
2022/4/4 3:00,3,3,2,1,1,27,15,38,-9,-9,-7,-8,8,6,5,4,4,-10,-10,0,1,1
2022/4/4 4:00,3,3,2,1,1,29,16,40,-8,-8,-7,-8,8,5,4,4,4,-10,-10,0,1,1
2022/4/4 5:00,3,3,2,1,1,30,17,42,-6,-6,-6,-6,8,5,4,4,4,-10,-10,0,1,1
2022/4/4 6:00,3,3,2,1,1,29,16,40,-6,-7,-6,-7,8,6,4,4,4,-9,-9,0,1,1
2022/4/4 7:00,2,2,1,1,1,22,13,35,-18,-19,-8,-13,8,5,4,3,3,-9,-9,0,1,1
2022/4/4 8:00,0,0,0,0,0,14,11,26,-38,-38,-12,-23,6,4,3,2,0,-10,-10,0,1,1
2022/4/4 9:00,0,0,0,1,1,11,11,23,-49,-49,-14,-30,5,2,2,1,-1,-10,-10,0,1,1
2022/4/4 10:00,0,0,0,1,1,10,11,21,-56,-56,-15,-34,4,2,1,1,-1,-10,-10,0,1,0
2022/4/4 11:00,0,0,0,1,1,9,11,18,-61,-60,-16,-37,4,2,1,1,-2,-10,-10,0,0,0
2022/4/4 12:00,0,0,0,1,1,8,11,18,-63,-62,-16,-38,3,1,1,1,-2,-10,-10,0,0,0
2022/4/4 13:00,0,0,0,1,1,7,11,16,-66,-66,-17,-41,3,1,1,0,-2,-10,-10,0,0,0
2022/4/4 14:00,0,0,0,1,1,9,11,18,-62,-62,-16,-38,3,1,1,1,-2,-10,-10,0,0,0
2022/4/4 15:00,0,0,0,0,0,12,12,20,-57,-57,-15,-35,4,2,1,1,-1,-10,-10,0,1,1
2022/4/4 16:00,1,1,0,0,0,17,12,24,-47,-47,-13,-28,5,3,2,2,1,-12,-12,0,1,1
2022/4/4 17:00,2,2,1,0,0,23,14,29,-26,-26,-8,-16,7,4,3,3,3,-11,-11,0,1,1
2022/4/4 18:00,3,3,2,1,1,27,15,33,-9,-9,-5,-6,9,6,4,4,4,-11,-11,0,1,1
2022/4/4 19:00,3,3,2,1,1,29,16,36,-4,-5,-4,-3,9,6,5,4,5,-11,-11,0,1,1
2022/4/4 20:00,3,3,2,1,1,28,15,36,-6,-7,-5,-5,9,6,5,4,5,-11,-11,0,1,1
2022/4/4 21:00,3,3,2,1,1,26,14,35,-11,-11,-6,-7,8,5,4,3,4,-13,-13,0,1,1
2022/4/4 22:00,3,3,2,1,1,25,13,34,-15,-16,-6,-9,7,5,4,3,4,-14,-14,0,1,1
2022/4/4 23:00,2,2,1,1,1,22,12,32,-19,-19,-7,-10,7,5,4,3,4,-14,-14,0,1,1
2022/4/5 0:00,3,3,2,1,1,23,11,32,-17,-18,-7,-9,7,5,4,3,4,-14,-14,0,1,1
2022/4/5 1:00,3,3,2,1,1,23,12,33,-16,-17,-7,-9,7,5,4,3,4,-14,-14,0,1,1
2022/4/5 2:00,3,3,2,1,1,25,13,35,-14,-15,-7,-8,7,5,4,4,4,-14,-14,0,1,1
2022/4/5 3:00,3,3,2,1,1,27,14,37,-12,-13,-7,-8,8,5,4,4,4,-13,-13,0,1,1
2022/4/5 4:00,3,3,2,1,1,28,15,39,-11,-12,-6,-8,8,5,4,4,4,-13,-13,0,1,1
2022/4/5 5:00,3,3,2,1,1,29,16,40,-9,-10,-6,-6,8,5,4,4,4,-13,-13,0,1,1
2022/4/5 6:00,3,3,2,1,1,28,15,38,-10,-11,-6,-7,8,5,4,4,4,-13,-13,0,1,1
2022/4/5 7:00,1,1,1,0,0,21,12,33,-22,-22,-8,-13,8,5,4,3,2,-12,-12,0,1,1
2022/4/5 8:00,0,0,0,0,0,13,10,26,-41,-41,-12,-23,6,4,3,2,0,-13,-13,0,1,1
2022/4/5 9:00,0,0,0,1,1,10,10,22,-51,-51,-14,-30,4,3,2,1,-1,-12,-12,0,1,1
2022/4/5 10:00,0,0,0,1,1,9,11,20,-58,-58,-15,-34,4,2,2,1,-1,-12,-12,0,0,1
2022/4/5 11:00,0,0,0,1,1,7,11,17,-59,-59,-15,-34,3,2,1,1,-2,-12,-12,0,0,0
2022/4/5 12:00,0,0,0,1,1,7,11,17,-60,-59,-15,-34,3,2,1,1,-2,-13,-13,0,0,0
2022/4/5 13:00,0,0,0,1,1,6,10,15,-63,-63,-15,-36,2,1,1,0,-2,-13,-13,0,0,0
2022/4/5 14:00,0,0,0,1,1,8,11,18,-60,-59,-14,-33,3,2,1,1,-2,-14,-14,0,0,0
2022/4/5 15:00,0,0,0,1,1,11,11,20,-48,-47,-13,-30,4,2,2,1,-1,-7,-7,0,0,1
2022/4/5 16:00,0,0,0,0,0,16,12,23,-34,-34,-11,-24,5,3,2,2,1,-4,-4,0,1,1
2022/4/5 17:00,2,2,1,1,1,23,13,29,-16,-16,-8,-15,8,5,4,3,3,-3,-3,0,1,1
2022/4/5 18:00,3,3,1,1,1,27,14,33,-2,-3,-5,-6,9,6,4,4,4,-4,-4,0,1,1
2022/4/5 19:00,3,3,2,1,1,29,16,36,-7,-8,-4,-3,10,6,5,4,5,-15,-15,0,1,2
2022/4/5 20:00,3,3,2,1,1,28,15,36,-11,-12,-5,-5,9,6,5,4,4,-17,-17,0,1,1
2022/4/5 21:00,3,3,2,1,1,26,14,34,-15,-15,-5,-6,9,6,4,4,4,-18,-18,0,1,1
2022/4/5 22:00,3,3,1,1,1,25,13,33,-19,-19,-6,-8,8,5,4,3,4,-18,-18,0,1,1
2022/4/5 23:00,2,2,1,1,1,22,11,7,-27,-27,-7,-11,6,5,4,3,0,-18,-18,0,1,1
2022/4/6 0:00,2,2,2,1,1,22,11,-1,-26,-27,-7,-11,6,5,4,3,0,-18,-18,0,1,1
2022/4/6 1:00,3,3,2,1,1,23,11,0,-26,-27,-8,-11,6,5,4,3,0,-18,-18,0,1,1
2022/4/6 2:00,3,3,2,1,1,24,12,0,-24,-25,-7,-10,6,5,4,4,0,-18,-18,0,1,1
2022/4/6 3:00,3,3,2,1,1,26,13,0,-23,-24,-7,-10,6,5,4,4,0,-18,-18,0,1,1
2022/4/6 4:00,3,3,2,1,1,28,15,0,-22,-23,-7,-9,6,5,4,3,0,-18,-18,0,1,1
2022/4/6 5:00,3,3,2,1,1,29,15,0,-21,-21,-7,-8,7,5,4,4,0,-17,-17,0,1,1
2022/4/6 6:00,2,2,1,1,1,27,14,0,-22,-22,-7,-8,7,6,4,4,0,-18,-18,0,1,1
2022/4/6 7:00,2,2,1,0,0,21,12,0,-24,-25,-7,-9,8,6,5,4,0,-18,-18,0,1,1
2022/4/6 8:00,0,0,0,0,0,16,11,0,-29,-30,-7,-12,7,6,4,4,0,-18,-18,0,1,1
2022/4/6 9:00,0,0,0,0,0,15,11,0,-39,-38,-9,-17,7,6,4,4,0,-18,-18,0,1,1
2022/4/6 10:00,0,0,0,0,0,10,11,0,-29,-29,-7,-11,8,6,5,4,0,-18,-18,0,1,1
2022/4/6 11:00,0,0,-1,1,1,9,11,0,-22,-22,-5,-6,7,6,4,3,0,-18,-18,0,1,2
2022/4/6 12:00,1,1,0,0,0,20,14,0,-24,-24,-6,-8,7,5,4,3,0,-18,-18,0,1,1
2022/4/6 13:00,2,2,1,1,1,22,14,0,-36,-37,-9,-16,6,4,3,3,0,-18,-18,0,1,1
2022/4/6 14:00,2,2,1,1,1,25,15,0,-38,-38,-10,-18,6,3,3,2,0,-18,-18,0,1,1
2022/4/6 15:00,2,2,1,1,1,27,16,0,-41,-41,-9,-20,5,3,2,1,0,-18,-18,0,1,1
2022/4/6 16:00,2,2,1,1,1,28,16,0,-42,-42,-9,-19,5,3,2,2,0,-18,-18,0,1,1
2022/4/6 17:00,3,3,1,1,1,30,16,0,-28,-29,-7,-11,6,5,3,3,0,-18,-18,0,1,1
2022/4/6 18:00,3,3,2,1,1,31,17,5,-19,-20,-5,-5,8,6,4,4,0,-18,-18,0,1,1
2022/4/6 19:00,3,3,2,1,1,32,18,39,-14,-15,-4,-3,10,7,5,4,0,-18,-18,0,1,2
2022/4/6 20:00,3,3,2,1,1,30,17,38,-16,-16,-4,-4,9,6,5,4,0,-18,-18,0,1,1
2022/4/6 21:00,3,3,2,1,1,28,15,37,-18,-19,-5,-5,9,6,4,4,0,-18,-18,0,1,1
2022/4/6 22:00,3,3,2,1,1,27,14,36,-22,-22,-6,-7,8,5,4,4,0,-18,-18,0,1,1
2022/4/6 23:00,3,3,2,1,1,24,12,34,-24,-25,-6,-9,8,5,4,3,0,-18,-18,0,1,1
2022/4/7 0:00,3,3,2,1,1,25,13,34,-23,-24,-6,-8,8,5,4,3,0,-18,-18,0,1,1
2022/4/7 1:00,3,3,2,1,1,25,13,35,-23,-24,-7,-9,8,5,4,3,0,-18,-18,0,1,1
2022/4/7 2:00,3,3,2,1,1,27,14,38,-21,-22,-6,-8,8,6,4,4,0,-18,-18,0,1,1
2022/4/7 3:00,3,3,2,1,1,29,15,39,-19,-20,-6,-7,8,6,4,4,0,-18,-18,0,1,1
2022/4/7 4:00,3,3,2,1,1,31,17,42,-18,-19,-6,-6,8,6,5,4,0,-18,-18,0,1,1
2022/4/7 5:00,3,3,2,1,1,32,17,42,-17,-17,-5,-5,8,6,4,4,0,-18,-18,0,1,1
2022/4/7 6:00,3,3,2,1,1,29,16,40,-19,-20,-6,-6,9,6,4,4,0,-18,-18,0,1,1
2022/4/7 7:00,2,2,1,1,1,22,13,35,-29,-29,-8,-12,8,5,4,3,0,-18,-18,0,1,1
2022/4/7 8:00,0,0,0,0,0,14,11,27,-40,-40,-9,-18,7,5,3,3,0,-18,-18,0,1,1
2022/4/7 9:00,0,0,0,1,1,11,11,23,-47,-47,-11,-23,6,3,2,2,0,-18,-18,0,0,1
2022/4/7 10:00,0,0,0,0,0,16,13,25,-49,-49,-10,-23,6,3,2,2,0,-19,-19,0,1,1
2022/4/7 11:00,0,0,0,0,0,18,14,24,-50,-49,-11,-24,6,3,3,2,-1,-19,-19,0,1,1
2022/4/7 12:00,0,0,0,1,1,16,15,24,-53,-53,-12,-26,6,4,3,2,-1,-19,-19,0,1,1
2022/4/7 13:00,0,0,0,0,0,16,15,27,-52,-51,-11,-25,5,3,3,2,1,-19,-19,0,1,1
2022/4/7 14:00,0,0,0,0,0,15,14,29,-52,-52,-12,-27,5,3,2,1,1,-19,-19,0,1,1
2022/4/7 15:00,1,1,0,0,0,17,14,28,-52,-52,-13,-28,5,3,3,2,2,-19,-19,0,1,1
2022/4/7 16:00,2,2,0,0,0,24,15,31,-42,-42,-11,-22,6,3,3,2,2,-19,-19,0,1,1
2022/4/7 17:00,3,3,1,1,1,28,16,35,-26,-27,-7,-13,8,5,4,3,3,-18,-18,0,1,1
2022/4/7 18:00,3,3,2,1,1,30,17,37,-11,-11,-4,-4,9,6,5,4,4,-16,-16,0,1,1
2022/4/7 19:00,3,3,2,1,1,32,18,39,-7,-8,-4,-3,9,6,5,4,5,-16,-16,0,1,1
2022/4/7 20:00,3,3,2,1,1,31,17,39,-11,-12,-5,-5,9,6,5,4,5,-17,-17,0,1,1
2022/4/7 21:00,3,3,2,1,1,28,15,38,-13,-14,-5,-6,8,6,4,4,4,-17,-17,0,1,1
2022/4/7 22:00,3,3,2,1,1,27,14,36,-16,-17,-6,-7,8,5,4,3,4,-17,-17,0,1,1
2022/4/7 23:00,3,3,1,1,1,24,13,34,-19,-20,-6,-9,7,5,4,3,4,-17,-17,0,1,1
2022/4/8 0:00,3,3,2,1,1,24,12,34,-18,-19,-6,-9,8,5,4,3,4,-16,-16,0,1,1
2022/4/8 1:00,3,3,2,1,1,25,12,35,-18,-18,-7,-9,7,5,4,3,3,-16,-16,0,1,1
2022/4/8 2:00,3,3,2,1,1,26,13,37,-15,-16,-6,-8,8,5,4,4,4,-16,-16,0,1,1
2022/4/8 3:00,3,3,2,1,1,28,14,38,-13,-14,-6,-7,8,5,4,4,4,-16,-16,0,1,1
2022/4/8 4:00,3,3,2,1,1,30,16,41,-12,-12,-6,-7,8,5,4,4,5,-16,-16,0,1,1
2022/4/8 5:00,3,3,2,1,1,31,17,42,-11,-12,-6,-6,8,6,5,4,5,-16,-16,0,1,1
2022/4/8 6:00,3,3,2,1,1,30,16,40,-13,-13,-6,-7,8,5,4,4,4,-16,-16,0,1,1
2022/4/8 7:00,3,3,2,1,1,26,14,38,-24,-24,-8,-12,8,5,4,3,3,-16,-16,0,1,1
2022/4/8 8:00,1,1,0,0,0,17,12,30,-43,-43,-11,-22,6,4,4,3,0,-16,-16,0,1,1
2022/4/8 9:00,0,0,0,1,1,12,12,24,-51,-51,-13,-27,6,4,4,3,-1,-15,-15,0,1,1
2022/4/8 10:00,0,0,0,0,0,12,13,22,-51,-51,-13,-28,6,3,2,2,-1,-15,-15,0,1,1
2022/4/8 11:00,0,0,0,0,0,19,14,26,-52,-52,-14,-29,5,2,2,1,1,-15,-15,0,0,1
2022/4/8 12:00,0,0,0,0,0,17,14,25,-58,-58,-14,-32,5,2,2,1,-1,-15,-15,0,1,1
2022/4/8 13:00,0,0,0,1,1,13,13,22,-53,-53,-13,-29,4,2,2,1,0,-15,-15,0,0,0
2022/4/8 14:00,0,0,0,1,1,12,12,23,-51,-51,-13,-28,5,3,2,2,0,-15,-15,0,1,1
2022/4/8 15:00,0,0,0,0,0,13,13,23,-51,-51,-13,-27,5,3,2,1,0,-15,-15,0,1,1
2022/4/8 16:00,0,0,0,0,0,18,14,25,-42,-42,-11,-23,6,3,2,2,1,-15,-15,0,1,1
2022/4/8 17:00,2,2,1,1,1,24,15,31,-24,-24,-8,-14,8,5,4,3,3,-14,-14,0,1,1
2022/4/8 18:00,3,3,1,1,1,28,16,35,-9,-9,-5,-4,9,6,4,4,5,-14,-14,0,1,1
2022/4/8 19:00,3,3,2,1,1,30,17,37,-5,-6,-4,-3,9,6,5,4,5,-14,-14,0,1,1
2022/4/8 20:00,3,3,2,1,1,29,16,37,-8,-8,-5,-5,9,6,5,4,5,-14,-14,0,1,1
2022/4/8 21:00,3,3,2,1,1,27,15,36,-10,-11,-5,-6,8,6,5,4,4,-14,-14,0,1,1
2022/4/8 22:00,3,3,2,1,1,26,14,35,-14,-15,-6,-8,7,5,4,4,4,-14,-14,0,1,1
2022/4/8 23:00,2,2,1,1,1,23,12,33,-17,-18,-7,-9,7,5,4,3,3,-14,-14,0,1,1
2022/4/9 0:00,3,3,2,1,1,23,12,33,-16,-17,-7,-9,7,5,4,3,4,-14,-14,0,1,1
2022/4/9 1:00,3,3,2,1,1,24,12,34,-16,-17,-7,-9,7,5,4,3,4,-14,-14,0,1,1
2022/4/9 2:00,3,3,2,1,1,25,13,36,-14,-15,-7,-8,8,5,4,4,4,-14,-14,0,1,1
2022/4/9 3:00,3,3,2,1,1,27,14,37,-13,-14,-7,-8,8,5,4,4,4,-14,-14,0,1,1
2022/4/9 4:00,3,3,2,1,1,28,15,39,-12,-13,-7,-8,8,5,4,4,4,-14,-14,0,1,1
2022/4/9 5:00,3,3,2,1,1,29,15,40,-11,-11,-6,-7,8,5,4,4,4,-14,-14,0,1,1
2022/4/9 6:00,3,3,1,1,1,27,14,37,-13,-14,-6,-8,8,5,4,3,4,-14,-14,0,1,1
2022/4/9 7:00,2,2,1,1,1,24,13,35,-15,-15,-6,-8,8,5,4,3,4,-14,-14,0,1,1
2022/4/9 8:00,0,0,0,0,0,20,12,32,-19,-19,-6,-9,8,5,4,3,4,-14,-14,0,1,1
2022/4/9 9:00,0,0,0,1,1,17,13,28,-23,-22,-6,-9,8,5,4,3,1,-14,-14,0,1,1
2022/4/9 10:00,0,0,1,1,1,10,12,21,-27,-27,-6,-10,8,5,4,3,0,-14,-14,0,1,1
2022/4/9 11:00,0,0,0,1,1,9,11,17,-32,-32,-7,-14,7,4,4,3,-1,-14,-14,0,1,0
2022/4/9 12:00,0,0,0,1,1,14,12,20,-29,-28,-7,-13,8,5,4,4,0,-13,-13,0,1,1
2022/4/9 13:00,0,0,0,0,0,17,12,23,-22,-22,-7,-12,8,5,4,4,3,-13,-13,0,1,1
2022/4/9 14:00,0,0,0,1,1,7,10,16,-34,-33,-8,-16,8,5,4,3,-1,-13,-13,0,1,0
2022/4/9 15:00,0,0,0,1,1,10,11,18,-32,-32,-8,-16,8,5,4,3,0,-13,-13,0,1,1
2022/4/9 16:00,0,0,0,0,0,16,12,23,-23,-23,-6,-12,8,5,4,3,2,-13,-13,0,1,1
2022/4/9 17:00,2,2,1,0,0,22,13,28,-11,-12,-5,-6,9,5,4,4,4,-13,-13,0,1,1
2022/4/9 18:00,3,3,1,1,1,25,14,32,-8,-8,-4,-4,9,6,5,4,5,-13,-13,0,1,1
2022/4/9 19:00,3,3,2,1,1,27,15,35,-8,-9,-4,-4,9,6,5,4,5,-16,-16,0,1,1
2022/4/9 20:00,3,3,2,1,1,26,15,35,-14,-15,-5,-5,9,6,5,4,4,-19,-19,0,1,1
2022/4/9 21:00,3,3,2,1,1,25,13,34,-16,-17,-5,-6,8,5,4,4,4,-19,-19,0,1,1
2022/4/9 22:00,3,3,1,1,1,24,12,33,-20,-21,-6,-8,7,5,4,3,4,-19,-19,0,1,1
2022/4/9 23:00,2,2,1,1,1,21,11,31,-23,-23,-7,-10,7,5,4,3,4,-19,-19,0,1,1
2022/4/10 0:00,2,2,2,1,1,21,11,32,-22,-22,-7,-9,7,5,4,3,3,-19,-19,0,1,1
2022/4/10 1:00,3,3,2,1,1,22,11,32,-21,-22,-7,-10,7,5,4,4,4,-19,-19,0,1,1
2022/4/10 2:00,3,3,2,1,1,24,12,34,-20,-20,-7,-9,8,5,4,4,4,-19,-19,0,1,1
2022/4/10 3:00,3,3,2,1,1,26,13,36,-19,-19,-7,-9,7,5,4,4,4,-19,-19,0,1,1
2022/4/10 4:00,3,3,2,1,1,27,15,37,-18,-18,-7,-8,7,5,4,4,4,-19,-19,0,1,1
2022/4/10 5:00,3,3,2,1,1,28,15,38,-16,-17,-6,-7,8,5,4,4,4,-19,-19,0,1,1
2022/4/10 6:00,2,2,1,1,1,26,14,36,-18,-18,-6,-8,8,5,4,3,4,-19,-19,0,1,1
2022/4/10 7:00,2,2,1,1,1,23,12,33,-21,-22,-7,-10,7,4,3,3,4,-19,-19,0,1,1
2022/4/10 8:00,2,2,1,0,0,21,11,30,-27,-28,-8,-13,6,4,3,2,4,-19,-19,0,1,1
2022/4/10 9:00,1,1,0,0,0,19,11,27,-35,-35,-10,-17,5,3,3,2,3,-19,-19,0,0,0
2022/4/10 10:00,0,0,0,0,0,18,12,26,-46,-46,-12,-23,4,2,2,1,1,-20,-20,0,0,0
2022/4/10 11:00,0,0,0,1,1,16,12,24,-60,-60,-14,-30,4,2,2,2,-1,-20,-20,0,0,0
2022/4/10 12:00,0,0,0,1,1,9,11,20,-74,-73,-17,-39,3,1,1,1,-2,-20,-20,0,0,0
2022/4/10 13:00,0,0,1,1,1,4,9,13,-78,-78,-17,-42,2,1,1,0,-2,-20,-20,0,0,0
2022/4/10 14:00,0,0,1,1,1,5,9,13,-75,-74,-16,-39,2,1,1,0,-2,-20,-20,0,0,0
2022/4/10 15:00,0,0,0,1,1,8,9,15,-66,-66,-15,-34,4,2,2,1,-1,-20,-20,0,0,0
2022/4/10 16:00,1,1,0,0,0,14,11,20,-47,-47,-11,-23,6,3,3,2,1,-20,-20,0,0,0
2022/4/10 17:00,2,2,1,0,0,20,12,25,-29,-30,-7,-12,7,5,4,3,3,-21,-21,0,1,1
2022/4/10 18:00,2,2,1,1,1,25,14,30,-20,-21,-6,-7,8,5,4,3,4,-21,-21,0,1,1
2022/4/10 19:00,3,3,2,1,1,27,15,35,-17,-17,-5,-6,9,6,5,4,5,-21,-21,0,1,1
2022/4/10 20:00,3,3,2,1,1,27,15,35,-19,-20,-6,-7,8,6,4,4,4,-21,-21,0,1,1
2022/4/10 21:00,3,3,2,1,1,25,14,34,-21,-21,-6,-7,8,5,4,3,4,-22,-22,0,1,1
2022/4/10 22:00,2,2,1,1,1,24,13,33,-24,-24,-6,-9,7,5,4,3,4,-22,-22,0,1,1
2022/4/10 23:00,2,2,2,1,1,21,11,31,-26,-26,-7,-10,7,5,4,3,4,-22,-22,0,1,1
2022/4/11 0:00,2,2,1,1,1,21,11,31,-25,-25,-7,-10,7,5,4,3,4,-22,-22,0,1,1
2022/4/11 1:00,2,2,1,1,1,21,11,32,-24,-25,-7,-9,7,5,4,3,3,-22,-22,0,1,1
2022/4/11 2:00,3,3,2,1,1,23,12,33,-22,-23,-7,-9,8,5,4,4,4,-22,-22,0,1,1
2022/4/11 3:00,3,3,2,1,1,25,13,35,-21,-21,-6,-8,8,5,4,4,4,-22,-22,0,1,1
2022/4/11 4:00,3,3,2,1,1,27,14,37,-20,-21,-6,-8,8,6,4,4,4,-22,-22,0,1,1
2022/4/11 5:00,3,3,2,1,1,28,15,38,-19,-20,-6,-7,8,5,4,4,4,-22,-22,0,1,1
2022/4/11 6:00,3,3,2,1,1,26,14,36,-20,-20,-6,-7,8,5,4,4,4,-22,-22,0,1,1
2022/4/11 7:00,2,2,1,1,1,22,12,35,-25,-26,-7,-10,9,6,5,4,4,-22,-22,0,1,1
2022/4/11 8:00,1,1,1,1,1,17,11,28,-35,-35,-8,-14,9,6,5,4,1,-22,-22,0,1,1
2022/4/11 9:00,1,1,0,0,0,18,12,28,-30,-31,-6,-10,9,6,5,4,0,-22,-22,0,1,1
2022/4/11 10:00,0,0,-1,0,0,23,14,32,-24,-25,-5,-7,8,5,4,3,2,-22,-22,0,1,1
2022/4/11 11:00,0,0,0,1,1,16,13,28,-35,-35,-9,-17,6,3,2,1,6,-22,-22,0,1,1
2022/4/11 12:00,0,0,0,1,1,14,12,25,-52,-52,-14,-29,4,2,1,1,6,-23,-23,0,1,1
2022/4/11 13:00,0,0,0,1,1,11,11,20,-71,-70,-16,-37,3,2,2,1,1,-23,-23,0,0,0
2022/4/11 14:00,0,0,0,0,0,16,12,25,-54,-54,-13,-29,6,4,3,2,3,-22,-22,0,1,1
2022/4/11 15:00,0,0,0,0,0,18,12,28,-41,-41,-10,-21,6,4,3,2,6,-22,-22,0,1,1
2022/4/11 16:00,1,1,0,0,0,21,13,30,-31,-32,-8,-13,7,4,3,3,4,-22,-22,0,1,1
2022/4/11 17:00,2,2,1,1,1,24,14,33,-22,-22,-5,-6,8,6,4,3,4,-22,-22,0,1,1
2022/4/11 18:00,3,3,1,1,1,27,15,35,-17,-17,-4,-4,9,6,5,4,5,-22,-22,0,1,1
2022/4/11 19:00,3,3,2,1,1,29,16,37,-14,-15,-4,-3,9,6,5,4,5,-22,-22,0,1,1
2022/4/11 20:00,3,3,2,1,1,28,15,36,-17,-18,-5,-5,9,6,5,4,5,-22,-22,0,1,1
2022/4/11 21:00,3,3,2,1,1,25,14,35,-21,-21,-6,-6,8,6,4,4,4,-23,-23,0,1,1
2022/4/11 22:00,2,2,1,1,1,24,13,34,-24,-25,-6,-8,7,5,4,3,4,-23,-23,0,1,1
2022/4/11 23:00,2,2,1,1,1,22,11,31,-27,-28,-7,-10,7,5,4,3,3,-23,-23,0,1,1
2022/4/12 0:00,2,2,2,1,1,21,11,31,-26,-26,-7,-9,7,5,4,3,3,-23,-23,0,1,1
2022/4/12 1:00,2,2,1,1,1,21,11,31,-26,-27,-7,-9,7,5,4,3,3,-23,-23,0,1,1
2022/4/12 2:00,3,3,1,1,1,23,11,33,-24,-25,-7,-9,8,5,4,4,4,-23,-23,0,1,1
2022/4/12 3:00,3,3,2,1,1,25,13,35,-23,-23,-7,-8,8,5,4,4,4,-23,-23,0,1,1
2022/4/12 4:00,3,3,2,1,1,26,14,37,-22,-23,-7,-8,8,5,4,4,4,-23,-23,0,1,1
2022/4/12 5:00,3,3,2,1,1,27,15,38,-20,-21,-6,-7,8,6,4,4,4,-23,-23,0,1,1
2022/4/12 6:00,2,2,1,1,1,25,13,36,-22,-23,-6,-7,8,6,5,4,4,-23,-23,0,1,1
2022/4/12 7:00,2,2,1,1,1,22,12,34,-29,-29,-7,-11,8,6,4,4,3,-23,-23,0,1,1
2022/4/12 8:00,1,1,0,0,0,15,10,26,-40,-41,-10,-17,8,5,4,3,2,-24,-24,0,1,1
2022/4/12 9:00,0,0,0,0,0,15,11,26,-45,-45,-11,-21,7,4,3,3,3,-24,-24,0,1,1
2022/4/12 10:00,0,0,0,0,0,20,13,30,-55,-54,-13,-29,6,4,3,2,7,-24,-24,0,1,1
2022/4/12 11:00,0,0,0,0,0,22,14,30,-55,-54,-11,-26,7,4,3,2,3,-24,-24,0,1,1
2022/4/12 12:00,0,0,0,1,1,12,11,22,-58,-58,-12,-28,6,4,3,2,1,-24,-24,0,1,1
2022/4/12 13:00,0,0,0,1,1,7,10,17,-65,-64,-13,-30,7,4,3,3,0,-25,-25,0,0,1
2022/4/12 14:00,0,0,0,1,1,11,11,21,-47,-47,-10,-22,8,6,4,4,3,-24,-24,0,1,1
2022/4/12 15:00,1,1,0,0,0,17,12,25,-29,-29,-6,-9,9,6,4,4,3,-24,-24,0,1,2
2022/4/12 16:00,1,1,0,0,0,19,12,28,-20,-21,-4,-4,9,6,5,4,3,-23,-23,0,1,2
2022/4/12 17:00,2,2,1,0,0,24,13,32,-15,-16,-3,-1,10,7,5,4,4,-24,-24,1,1,2
2022/4/12 18:00,3,3,2,1,1,27,14,35,-14,-14,-3,-1,10,7,5,4,4,-24,-24,1,1,2
2022/4/12 19:00,3,3,2,1,1,29,16,37,-13,-14,-4,-2,10,7,5,4,5,-23,-23,1,1,2
2022/4/12 20:00,3,3,2,1,1,28,15,36,-17,-17,-4,-4,9,6,5,4,5,-23,-23,1,1,2
2022/4/12 21:00,3,3,2,1,1,26,14,35,-20,-20,-5,-6,9,6,4,4,4,-23,-23,1,1,1
2022/4/12 22:00,2,2,1,1,1,24,13,34,-23,-24,-6,-8,8,6,4,4,4,-23,-23,1,1,1
2022/4/12 23:00,2,2,1,1,1,22,11,31,-27,-27,-7,-10,8,5,4,3,4,-23,-23,0,1,1
2022/4/13 0:00,2,2,2,1,1,21,11,31,-26,-26,-7,-9,8,6,4,4,3,-23,-23,1,1,2
2022/4/13 1:00,2,2,1,1,1,22,11,32,-25,-26,-7,-9,8,6,4,4,4,-23,-23,1,1,1
2022/4/13 2:00,3,3,2,1,1,23,12,34,-23,-23,-6,-8,8,6,4,4,4,-23,-23,0,1,1
2022/4/13 3:00,3,3,2,1,1,26,13,36,-20,-21,-6,-7,8,6,4,4,4,-23,-23,1,1,1
2022/4/13 4:00,3,3,2,1,1,28,15,38,-19,-20,-6,-7,8,6,4,4,4,-23,-23,1,1,1
2022/4/13 5:00,3,3,2,1,1,29,15,39,-18,-19,-5,-6,8,6,4,4,4,-23,-23,1,1,1
2022/4/13 6:00,3,3,1,1,1,28,15,38,-17,-18,-5,-5,9,6,5,4,4,-23,-23,1,1,1
2022/4/13 7:00,3,3,2,1,1,26,13,38,-19,-19,-5,-5,9,6,5,4,4,-23,-23,1,1,2
2022/4/13 8:00,2,2,1,1,1,23,13,35,-21,-21,-5,-6,10,7,5,4,4,-23,-23,1,1,2
2022/4/13 9:00,2,2,1,1,1,24,14,36,-14,-15,-4,-2,10,6,5,4,6,-23,-23,1,1,2
2022/4/13 10:00,2,2,1,1,1,26,16,37,-11,-11,-4,-2,9,6,4,3,9,-23,-23,1,1,2
2022/4/13 11:00,2,2,1,1,1,29,17,38,-14,-14,-4,-4,8,5,4,3,10,-23,-23,1,1,2
2022/4/13 12:00,2,2,1,1,1,29,17,38,-14,-15,-4,-4,8,5,4,3,10,-23,-23,1,1,2
2022/4/13 13:00,2,2,1,0,0,27,16,36,-19,-20,-6,-8,8,5,4,3,9,-24,-24,1,1,1
2022/4/13 14:00,2,2,1,1,1,29,17,40,-15,-15,-4,-4,9,6,4,4,8,-23,-23,0,1,1
2022/4/13 15:00,3,3,1,1,1,30,17,40,-17,-18,-4,-3,9,6,4,4,4,-23,-23,1,1,2
2022/4/13 16:00,3,3,2,1,1,31,18,39,-16,-17,-4,-2,9,6,4,4,4,-23,-23,0,1,2
2022/4/13 17:00,3,3,2,1,1,31,18,40,-12,-13,-3,0,10,6,5,4,4,-23,-23,1,1,2
2022/4/13 18:00,3,3,2,1,1,32,18,41,-11,-12,-3,0,10,7,5,4,5,-23,-23,1,1,2
2022/4/13 19:00,3,3,2,1,1,33,19,42,-11,-12,-3,0,10,7,5,4,5,-23,-23,1,1,2
2022/4/13 20:00,3,3,2,1,1,32,18,41,-14,-15,-4,-3,9,6,5,4,5,-23,-23,1,1,2
2022/4/13 21:00,3,3,2,1,1,29,16,40,-16,-17,-4,-4,9,6,5,4,5,-23,-23,1,1,2
2022/4/13 22:00,3,3,2,1,1,28,15,39,-21,-21,-5,-6,8,6,4,4,4,-23,-23,1,1,1
2022/4/13 23:00,3,3,2,1,1,25,13,35,-23,-24,-6,-8,8,5,4,3,4,-23,-23,1,1,1
2022/4/14 0:00,3,3,2,1,1,25,13,36,-23,-23,-6,-7,8,6,4,4,4,-23,-23,1,1,2
2022/4/14 1:00,3,3,2,1,1,25,13,36,-22,-23,-6,-7,8,6,4,3,4,-23,-23,1,1,2
2022/4/14 2:00,3,3,2,1,1,27,14,39,-20,-21,-6,-6,8,6,5,4,4,-23,-23,1,1,1
2022/4/14 3:00,3,3,2,1,1,29,15,41,-18,-19,-6,-6,8,6,5,4,4,-23,-23,1,1,1
2022/4/14 4:00,3,3,2,1,1,30,17,42,-17,-18,-5,-5,8,6,5,4,4,-23,-23,1,1,1